Regional Weather Roundup
Issued by NWS

Home | Current Version | Previous Version | Text Only | Print | Product List | Glossary On
Versions: 1 2 3 4 5 6 7 8 9 10 11 12 13 14 15 16 17 18 19 20 21 22 23 24 25 26 27 28 29 30 31 32 33 34 35 36 37 38 39 40 41 42 43 44 45 46 47 48 49 50
000
ASUS43 KLOT 250203
RWRIL

ILLINOIS REGIONAL WEATHER ROUNDUP
NATIONAL WEATHER SERVICE CHICAGO/ROMEOVILLE IL
900 PM CDT TUE MAY 24 2016

NOTE: "FAIR" INDICATES FEW OR NO CLOUDS BELOW 12,000 FEET WITH NO
SIGNIFICANT WEATHER AND/OR OBSTRUCTIONS TO VISIBILITY.

* THESE STATIONS ARE NOT UNDER NWS QUALITY CONTROL. THEY ALSO MAY NOT
  REPORT WEATHER SUCH AS PRECIPITATION OR FOG.

ILZ001-002-007-009-015-016-024-250300-
NORTHWEST ILLINOIS

CITY           SKY/WX    TMP DP  RH WIND       PRES   REMARKS
MOLINE         CLOUDY    78  60  53 S5        29.91R
STERLING*      PTCLDY    79  60  52 VRB3      29.93R HX  80
$$

ILZ003-004-008-010-011-017-018-250300-
NORTH CENTRAL ILLINOIS

CITY           SKY/WX    TMP DP  RH WIND       PRES   REMARKS
ROCKFORD       MOCLDY    76  56  49 CALM      29.94R
FREEPORT*      PTCLDY    71  58  65 SW3       29.94R
ROCHELLE*      MOCLDY    77  57  48 S9        29.94R
$$

ILZ005-006-012>014-019>023-250300-
NORTHEAST ILLINOIS

CITY           SKY/WX    TMP DP  RH WIND       PRES   REMARKS
CHICAGO-OHARE  MOCLDY    78  52  40 S9        29.93R
CHICAGO-MIDWAY MOCLDY    82  51  34 S8        29.94R HX  81
AURORA         CLOUDY    77  56  48 S6        29.95R
LANSING*       PTCLDY    73  53  50 S8        29.96S
WAUKEGAN       CLOUDY    68  56  65 CALM      29.93R
DUPAGE AIRPORT PTCLDY    73  54  51 S8        29.94R
WHEELING       MOCLDY    81  52  36 S10       29.94R HX  80
MORRIS*        MOCLDY    79  56  45 S10       29.94R HX  80
NORTHERLY ISL    N/A     82  48  30 S12         N/A  HX  81
NORTHERLY ISL    N/A     82  48  30 S12         N/A  HX  81
$$

LMZ740>746-250300-
SOUTHERN LAKE MICHIGAN

STATION/POSITION SKY/WX   TEMP    WIND        PRES    VSBY  WAVE
                          AIR SEA DIR/SP/G                  HT/PER
                          (F)     (DEG/KT/KT) (MB)    (MI)  (FT/S)
SOUTHERN BUOY              56 49  130/ 10/ 10 1013.2          0
WILMETTE HARBOR            63 57  150/  6/  8   N/A           1
HARRISON CRIB              84     210/ 18/ 19   N/A
BURNHAM HARBOR             81     190/  7/ 13   N/A
CALUMET HARBOR                                1013.3R
BURNS HARBOR               81     190/ 10/ 12 1014.6R
MICHIGAN CITY              81     180/  8/  9   N/A
MICHIGAN CITY 6N           69 59  210/  6/  8   N/A           1/ 2
ST. JOSEPH                 74 59  160/  4/  4   N/A           0
$$

ILZ025>027-034>036-040-047-049-050-058-095>099-250300-
WEST-CENTRAL ILLINOIS

CITY           SKY/WX    TMP DP  RH WIND       PRES   REMARKS
QUINCY         MOCLDY    70  64  81 S7        29.96R
MACOMB*        CLOUDY    73  62  67 SW5       29.97S
PITTSFIELD*    CLOUDY    73  66  80 S3        29.99R
$$

ILZ028>032-037-038-041>044-048-051>054-059>061-250300-
CENTRAL ILLINOIS

CITY           SKY/WX    TMP DP  RH WIND       PRES   REMARKS
BLOOMINGTON    CLOUDY    75  64  68 S10       29.99R
DECATUR        CLOUDY    75  62  64 S13       29.99R
PEORIA         CLOUDY    76  62  62 CALM      29.95R
LINCOLN*       CLOUDY    77  65  65 S6        29.96R
SPRINGFIELD    CLOUDY    77  65  66 S8        29.96R
TAYLORVILLE    NOT AVBL
$$

ILZ033-039-045-046-055>057-062-063-250300-
EAST-CENTRAL ILLINOIS

CITY           SKY/WX    TMP DP  RH WIND       PRES   REMARKS
CHAMPAIGN      PTCLDY    73  59  61 S9        30.00R
MATTOON        CLOUDY    72  58  61 SE8       30.00R
$$

ILZ079-100>102-250300-
SOUTHWEST ILLINOIS

CITY           SKY/WX    TMP DP  RH WIND       PRES   REMARKS
ALTON          CLOUDY    68  63  83 S6        30.01R
CAHOKIA*       CLOUDY    69  62  78 SE5       30.00R
SPARTA*        CLOUDY    67  64  89 CALM      30.03R
$$

ILZ064>066-069>071-074>076-080>082-084>086-088>090-092>094-250300-
SOUTH-CENTRAL ILLINOIS

CITY           SKY/WX    TMP DP  RH WIND       PRES   REMARKS
CARBONDALE     CLOUDY    69  61  75 S3        30.00S
CAIRO*         MOCLDY    69  64  85 W8        29.99R
EFFINGHAM*     PTCLDY    73  62  68 SE3       30.03R
MT. VERNON     PTCLDY    70  61  73 CALM      30.01S
SALEM*         MOCLDY    74  65  72 S5        30.01R
$$

ILZ067-068-072-073-078-083-087-091-250300-
SOUTHEAST ILLINOIS

CITY           SKY/WX    TMP DP  RH WIND       PRES   REMARKS
LAWRENCEVILLE  PTCLDY    74  59  59 SE7       30.02R
FLORA*         PTCLDY    71  62  71 S6        30.02R
HARRISBURG*    CLOUDY    72  62  68 CALM      30.02R
ROBINSON*      CLOUDY    69  59  72 S5        30.03R
$$

ABBREVIATIONS USED IN REMARKS
   TC - TEMPERATURE IN CELSIUS
  WCI - WIND CHILL INDEX
   HX - HEAT INDEX
  VSB - VISIBILITY
$$





USA.gov is the U.S. government's official web portal to all federal, state and local government web resources and services.